Regional Weather Roundup
Issued by NWS Green Bay, WI

Home | Current Version | Previous Version | Graphics & Text | Print | Product List | Glossary Off
Versions: 1 2 3 4 5 6 7 8 9 10 11 12 13 14 15 16 17 18 19 20 21 22 23 24 25 26 27 28 29 30 31 32 33 34 35 36 37 38 39 40 41 42 43 44 45 46 47 48 49 50

000
ASUS43 KGRB 271859
RWRGRB

NORTH-CENTRAL AND NORTHEAST WISCONSIN REGIONAL WEATHER ROUNDUP
NATIONAL WEATHER SERVICE GREEN BAY WI
200 PM CDT FRI MAR 27 2015

WIZ005-009-010>012-018-019-272000-
NORTH CENTRAL WISCONSIN

CITY           SKY/WX    TMP DP  RH WIND       PRES   REMARKS
IRONWOOD         N/A     21  10  63 NW7       30.17F
MANITOWISH WTR NOT AVBL
ARBOR VITAE    NOT AVBL
EAGLE RIVER    NOT AVBL
LAND O LAKES   NOT AVBL
RHINELANDER      N/A     25   3  38 VRB7      30.15F
PHILLIPS         N/A     28   5  37 CALM      30.15F
ANTIGO         NOT AVBL
TOMAHAWK       NOT AVBL
MERRILL        NOT AVBL
$$

WIZ013-073-272000-
NORTHEAST WISCONSIN

CITY           SKY/WX    TMP DP  RH WIND       PRES   REMARKS
IRON MOUNTAIN    N/A     24   0  35 N9        30.16F
MARINETTE        N/A     25   3  39 NE7       30.20F
$$

WIZ017-030-035>037-045-272000-
CENTRAL WISCONSIN

CITY           SKY/WX    TMP DP  RH WIND       PRES   REMARKS
MEDFORD        NOT AVBL
WAUSAU           N/A     27   5  39 VRB7      30.15F
MOSINEE        SUNNY     27   7  43 N9        30.18
MARSHFIELD       N/A     29  11  47 N10       30.18F
WISC RAPIDS      N/A     28   5  37 N8        30.20F
STEVENS POINT  NOT AVBL
WAUPACA        NOT AVBL
SHAWANO        NOT AVBL
CLINTONVILLE     N/A     28   0  29 NE5       30.19F
$$

WIZ038-039-048-051-272000-
FOX VALLEY

CITY           SKY/WX    TMP DP  RH WIND       PRES   REMARKS
NWS GREEN BAY    N/A     28  11  48 NE10G18   30.20F
APPLETON       MOSUNNY   27   1  33 NE12      30.19F
OSHKOSH          N/A     28   7  41 N10       30.19F
FOND DU LAC      N/A     28   7  41 NE10G22   30.19F
$$

WIZ022-050-052-272000-
EAST CENTRAL WISCONSIN

CITY           SKY/WX    TMP DP  RH WIND       PRES   REMARKS
STURGEON BAY     N/A     21   7  53 N13G20    30.22F WCI   9
MANITOWOC      NOT AVBL
SHEBOYGAN        N/A     27   7  42 NE15G21   30.18F
$$

LMZ563-521-522-541>543-272000-
LAKESHORE

STATION/POSITION TIME  TEMP    WIND        PRES    VSBY  WAVE
                       AIR SEA DIR/SP/G                  HT/PER
                 (UTC) (F)     (DEG/KT/KT) (MB)    (MI)  (FT/S)
SHEBOYGAN LKSHOR 1800   22      10/ 18/ 21 1024.0S
KEWAUNEE LKSHORE 1800   22      10/  8/ 20 1022.1F
NORTHPORT PIER   1800   18     340/ 14/ 18 1023.4S
SISTER BAY LKSHO 1800   24      10/ 14/ 18   N/A
STURGEON BAY CG  1800   24     310/  8     1023.6F     6   1
CHAMBERS ISLAND  1800   19      30/ 10/ 14 1023.4F
MENOMINEE LKSHOR 1800   22     360/ 11     1023.5F
$$



USA.gov is the U.S. government's official web portal to all federal, state and local government web resources and services.